Погода в Больших Тайцы

Россия / Санкт-Петербург и Ленинградская область     59°39′33″N   30°06′24″E
темп.,
°C
ветер,
м/с
пор.,
м/с
влажн.,
%
обл.,
%
осадки,
мм/ч
давл.,
гПа
погр.,
м
3 марта, ср
ср300:00−1зсз512870 0.0 1018416
03:00−1зсз613880 0.0 1018440
06:00−2з5119424 0.0 1016395
09:00−1з6129046 0.0 1016501
12:00+1з6128143 0.0 1013720
15:00+3з7137271 0.0 10101055
18:00+1з7149795 0.9 1006797
21:00+1зсз7149698 2.0 1004848
4 марта, чт
чт400:000сз6118799 0.8 1002960
03:00−3зсз5117966 0.8 1004507
06:00−4зсз49860 0.0 1003392
09:00−4зсз48880 0.0 1004322
12:00−3сз458110 0.0 1003509
15:00−3сз578846 0.1 1004676
18:00−4ссз5881100 0.2 1004964
21:00−5сз498299 0.2 1005754
5 марта, пт
пт500:00−6сз488657 0.0 1006653
03:00−7сз478879 0.1 1007664
06:00−8сз4885100 0.1 1008529
09:00−9сз488691 0.1 1009495
12:00−7сз468197 0.0 1011569
15:00−7ссз468098 0.1 1013702
18:00−7ссз367797 0.0 1014507
21:00−8зсз358553 0.0 1016154
6 марта, сб
сб600:00−8зсз368958 0.0 1017253
03:00−9зсз369253 0.0 1017219
06:00−9зсз379320 0.0 1017194
09:00−8з389110 0.0 1016326
12:00−4зюз597221 0.0 1014885
15:00−3юз7117161 0.0 1010963
18:00−3юз91689100 0.6 10031228
21:00−2зюз91793100 2.5 9961182
7 марта, вс
вс700:00−1з91794100 3.1 9911133
03:00−5зсз10157091 3.8 9911060
06:00−10з5156733 0.0 9921451
09:00−9з4147333 0.0 9901745
12:00−9зсз81388100 0.3 9891193
15:00−5сз81289100 1.6 9911155
18:00−7ссз5989100 0.4 996674
21:00−9ссз71387100 0.8 1001641